Regional Weather Roundup
Issued by NWS

Home | Current Version | Previous Version | Text Only | Print | Product List | Glossary On
Versions: 1 2 3 4 5 6 7 8 9 10 11 12 13 14 15 16 17 18 19 20 21 22 23 24 25 26 27 28 29 30 31 32 33 34 35 36 37 38 39 40 41 42 43 44 45 46 47 48 49 50
000
ASUS43 KDMX 200107
RWRIA

WEATHER ROUNDUP FOR IOWA
NATIONAL WEATHER SERVICE DES MOINES IA
800 PM CDT FRI SEP 19 2014

NOTE: "FAIR" INDICATES FEW OR NO CLOUDS BELOW 12,000 FEET WITH NO
SIGNIFICANT WEATHER AND/OR OBSTRUCTIONS TO VISIBILITY.

* - THESE STATIONS ARE NOT NWS STATIONS...THUS NOT UNDER NWS
QUALITY CONTROL.  THEY ALSO DO NOT REPORT WEATHER SUCH
AS PRECIPITATION OR FOG.

IAZ001>003-012>014-020>022-031>034-043>046-200200-
   NORTHWEST IOWA

CITY           SKY/WX    TMP DP  RH WIND       PRES   REMARKS
CARROLL *      CLEAR     72  66  83 S10G17    29.81R
CHEROKEE *     CLEAR     75  70  83 S10       29.75S
DENISON *      CLEAR     75  70  83 S14G22    29.77S
LE MARS *      PTCLDY    79  68  69 S9        29.73S HX  81
ORANGE CITY *  PTCLDY    79  66  65 S8        29.74R HX  81
SHELDON *      CLEAR     79  68  69 S10       29.72R HX  81
SIOUX CITY     CLEAR     79  67  66 S6        29.74S HX  81
SPENCER        PTCLDY    77  68  73 S13       29.73F
STORM LAKE *   CLEAR     73  72  94 S10       29.79R
$$

IAZ055>058-069>071-079>083-090>094-200200-
   SOUTHWEST IOWA

CITY           SKY/WX    TMP DP  RH WIND       PRES   REMARKS
ATLANTIC *     CLEAR     72  68  88 S13G20    29.83R
AUDUBON *      CLEAR     70  63  78 S13G20    29.83S
CLARINDA *     CLEAR     72  68  88 S10G16    29.88S
COUNCIL BLFS *   N/A     75  72  88 S12       29.81R
CRESTON *      CLOUDY    70  66  88 S17G26    29.88S
HARLAN  *      CLEAR     73  70  88 S12G17    29.85R
LAMONI         PTCLDY    69  66  90 S13G20    29.90F
RED OAK *      CLEAR     73  68  83 S13G22    29.85R
SHENANDOAH *     N/A     73  70  88 S16G22    29.85S
$$

IAZ047>049-059>061-072>074-084-200200-
   CENTRAL IOWA

CITY           SKY/WX    TMP DP  RH WIND       PRES   REMARKS
AMES           CLEAR     72  66  81 S15       29.83S
ANKENY *       CLEAR     73  66  78 S15G22    29.84S
CHARITON *     CLEAR     70  64  83 S13       29.88S
DES MOINES     PTCLDY    73  65  75 S14       29.85S
GRINNELL*      CLEAR     70  61  73 S13G18    29.88R
KNOXVILLE *    CLEAR     70  63  78 S12       29.87R
MARSHALLTOWN   CLEAR     71  62  73 S14       29.83F
PELLA *        CLEAR     70  63  78 S13       29.89R
PERRY *          N/A     70  66  88 S12       29.83S
$$

IAZ004>006-015-016-023>025-035-036-200200-
   NORTH CENTRAL IOWA

CITY           SKY/WX    TMP DP  RH WIND       PRES   REMARKS
ALGONA *       CLEAR     75  68  78 S15       29.76S
CLARION *        N/A     73  66  78 S14G22    29.79S
ESTHERVILLE    PTCLDY    76  67  73 S14       29.73R
FORT DODGE *   CLEAR     72  64  78 S13       29.81R
MASON CITY     CLEAR     72  66  81 S9        29.80S
FOREST CITY *  CLEAR     73  66  78 S14       29.77R
IOWA FALLS *     N/A     72  64  78 S15       29.82S
$$

IAZ007>011-017>019-026>030-037>042-050>054-066-200200-
   NORTHEAST IOWA

CITY           SKY/WX    TMP DP  RH WIND       PRES   REMARKS
CEDAR RAPIDS   CLEAR     69  59  70 S15       29.88F
CHARLES CITY * CLEAR     70  61  73 S12       29.82R
CLINTON *      PTCLDY    64  54  68 S7        29.95F
DECORAH *      PTCLDY    68  59  73 S9G17     29.81R
DUBUQUE        CLEAR     67  54  63 S16       29.88F
MONTICELLO *   CLEAR     68  57  68 S13       29.88F
OELWEIN *      CLEAR     68  59  73 S15G26    29.84S
WATERLOO       CLEAR     70  60  70 S22       29.82R
$$

IAZ064-065-067-068-078-200200-
   EAST CENTRAL IOWA

CITY           SKY/WX    TMP DP  RH WIND       PRES   REMARKS
DAVENPORT      PTCLDY    69  53  56 S13       29.93F
IOWA CITY      CLEAR     68  58  70 S10       29.91F
MT. PLEASANT * CLEAR     68  55  64 S7        29.94S
MUSCATINE *    CLEAR     66  57  72 S9        29.93S
QUAD CITIES    PTCLDY    68  54  60 S6        29.93F
$$

IAZ062-063-075>077-085>089-095>099-200200-
   SOUTHEAST IOWA

CITY           SKY/WX    TMP DP  RH WIND       PRES   REMARKS
BURLINGTON     CLEAR     67  57  70 S10       29.94F
FAIRFIELD *    CLEAR     70  59  68 S12G17    29.92F
FORT MADISON * CLEAR     70  57  64 S9        29.96F
KEOKUK *       CLEAR     70  59  68 S7        29.95S
OSKALOOSA *      N/A     68  63  83 S9        29.90S
CENTERVILLE *  CLEAR     68  64  88 S8        29.93S
OTTUMWA        CLEAR     70  61  73 S10       29.90S
WASHINGTON *   CLEAR     68  59  73 S10       29.92S
$$

ABBREVIATIONS USED IN REMARKS
   TC - TEMPERATURES IN CELSIUS
  WCI - WIND CHILL INDEX
   HX - HEAT INDEX
  VSB - VISIBILITY
$$



USA.gov is the U.S. government's official web portal to all federal, state and local government web resources and services.